Location: Norton
(51.3000°N, 0.8167°E)
Time: 12:46:36
(UTC+00:00)

Okean 1-7 - Pass Details

Date: 03 March 2021
Orbit: 589 x 619 km, 82.5° (Epoch: 16 April)

Event Time Altitude Azimuth Distance (km) Brightness Sun altitude
Rises 19:33:25 0° 347° (NNW) 2,902 6.9 -18.3°
Reaches altitude 10° 19:35:41 10° 344° (NNW) 1,988 6.0 -18.6°
Maximum altitude 19:40:02 64° 264° (W) 682 3.4 -19.3°
Drops below altitude 10° 19:44:19 10° 183° (S) 1,955 5.5 -19.9°
Enters shadow 19:45:49 - 181° (S) 2,563 6.1 -20.1°
